Terminal Aerodrome Forecast
Issued by NWS

Home | Current Version | Previous Version | Text Only | Print | Product List | Glossary On
Versions: 1 2 3 4 5 6 7 8 9 10 11 12 13 14 15 16 17 18 19 20 21 22 23 24 25 26 27 28 29 30 31 32 33 34 35 36 37 38 39 40 41
000
FTUS45 KLKN 182320
TAFEKO
TAF
KEKO 182320Z 1900/1924 VRB05KT P6SM BKN035 OVC060
     FM190300 VRB03KT P6SM BKN100
     FM191000 VRB03KT P6SM VCFG SCT120
     FM191500 VRB04KT P6SM BKN050 OVC070
     FM192200 24006KT P6SM VCSH BKN030 OVC050=

USA.gov is the U.S. government's official web portal to all federal, state and local government web resources and services.